[[{"header":{"parameterUnit":"m.s-1","parameterCategory":1,"la1":30.2991,"la2":30.254,"lo1":-89.0895,"lo2":-89.0444,"dy":0.0017,"dx":0.0017,"nx":28,"ny":28,"refTime":"2025-01-19T03:00:00:Z","depth":0,"parameterNumber":2,"parameterNumberName":"U-component_of_WINDS"},"data":[0,0,0,0,0,0,0,0,0,0,0,0,0,0,0,0,0,0,0,0,0,0,0,0,0,0,0,0,0,0,0,0,0,0,0,0,0,0,0,0,0,0,0,0,0,0,0,0,0,0,0,0,0,0,0,0,0,0,-2.6465,-2.6465,0,-2.6458,-2.6458,-2.6458,-2.6401,-2.64,-2.6399,-2.6397,-2.6391,-2.6392,-2.6394,0,0,0,0,0,0,0,0,0,0,0,0,0,-2.643,-2.6431,-2.6465,-2.6465,-2.6465,-2.6458,-2.6458,-2.6458,-2.6402,-2.64,-2.6398,-2.6397,-2.6391,-2.6392,-2.6394,0,0,0,0,0,0,0,0,0,0,0,0,0,-2.6437,-2.6432,-2.6465,-2.6436,-2.6433,-2.6458,-2.6458,-2.6458,-2.6402,-2.64,-2.6398,-2.6396,-2.6391,-2.6392,-2.6394,-2.6446,0,0,-2.6399,-2.64,0,0,0,0,0,0,0,0,-2.6436,-2.6438,-2.644,-2.6438,-2.6435,-2.6428,-2.6443,-2.6454,-2.6403,-2.6414,-2.6397,-2.6395,-2.6405,-2.6406,-2.6409,-2.6446,-2.6446,-2.6399,-2.64,-2.6401,-2.6402,0,0,0,0,0,0,0,-2.6436,-2.6438,-2.6462,-2.644,-2.6437,-2.6423,-2.6422,-2.6445,-2.6422,-2.6413,-2.6409,-2.6409,-2.6404,-2.6408,-2.6409,-2.6446,-2.6399,-2.6401,-2.6402,-2.6402,-2.6525,-2.6527,0,0,0,0,0,0,-2.6439,-2.6438,-2.6462,-2.6462,-2.643,-2.6426,-2.6424,-2.6433,-2.6421,-2.6417,-2.641,-2.6406,-2.6406,-2.6407,-2.6408,-2.6469,-2.6401,-2.6403,-2.6404,-2.6523,-2.6525,-2.6528,0,0,0,0,0,0,-2.6439,-2.6442,-2.6462,-2.6449,-2.645,-2.6429,-2.6438,-2.6434,-2.6437,-2.6419,-2.6415,-2.6419,-2.6404,-2.6406,-2.6437,-2.6468,-2.6403,-2.6405,-2.652,-2.6524,-2.6527,-2.659,0,0,0,0,0,0,-2.6438,-2.6442,-2.6462,-2.645,-2.6451,-2.6492,-2.644,-2.6435,-2.644,-2.6435,-2.6426,-2.6422,-2.6403,-2.6435,-2.6439,-2.6469,-2.6406,-2.6517,-2.6522,-2.6526,-2.6586,-2.6596,-2.6604,0,0,0,0,0,-2.6437,-2.648,-2.6463,-2.6466,-2.6475,-2.6493,-2.6494,-2.647,-2.6443,-2.6463,-2.6451,-2.6423,-2.6464,-2.6439,-2.6442,-2.6474,-2.6515,-2.652,-2.6525,-2.6581,-2.6594,-2.6604,0,0,0,0,0,0,-2.6497,-2.6478,-2.6459,-2.6499,-2.6498,-2.6484,-2.6508,-2.6484,-2.6491,-2.6485,-2.6455,-2.6454,-2.649,-2.6485,-2.6457,-2.6524,-2.6485,-2.6491,-2.6526,-2.6537,-2.6547,-2.6547,-2.6408,0,0,0,0,0,-2.6515,-2.6531,-2.6514,-2.6551,-2.6552,-2.653,-2.6537,-2.6518,-2.6516,-2.6516,-2.6506,-2.6506,-2.6518,-2.6527,-2.6538,-2.6584,-2.6582,-2.6608,-2.6617,-2.6625,-2.6631,-2.6655,-2.6666,-2.6544,-2.6544,-2.6544,0,0,-2.6552,-2.6544,-2.6556,-2.6563,-2.656,-2.6578,-2.653,-2.6551,-2.6564,-2.6519,-2.6548,-2.6541,-2.6539,-2.6578,-2.6594,-2.6574,-2.6663,-2.6631,-2.6637,-2.6639,-2.6661,-2.6673,-2.6683,-2.6548,-2.6547,-2.6547,0,0,-2.6629,-2.6625,-2.6655,-2.6653,-2.6649,-2.6634,-2.6642,-2.6631,-2.6624,-2.6653,-2.662,-2.6635,-2.6657,-2.6657,-2.6659,-2.6736,-2.671,-2.674,-2.6789,-2.6813,-2.6823,-2.6831,-2.6859,-2.6869,-2.6746,-2.6746,-2.6746,0,-2.6677,-2.6701,-2.6674,-2.6697,-2.6701,-2.6661,-2.6692,-2.6691,-2.6691,-2.6695,-2.6673,-2.67,-2.6695,-2.6734,-2.6752,-2.6756,-2.6763,-2.6741,-2.6823,-2.6832,-2.6839,-2.6865,-2.6876,-2.675,-2.6749,-2.6749,-2.6748,0,-2.676,-2.6778,-2.6803,-2.6803,-2.681,-2.6837,-2.6814,-2.6824,-2.6805,-2.6793,-2.6822,-2.6815,-2.6824,-2.6831,-2.6813,-2.6868,-2.6855,-2.6829,-2.6789,-2.6855,-2.6879,-2.6889,-2.6755,-2.6754,-2.6752,-2.6752,0,0,-2.6875,-2.686,-2.687,-2.6869,-2.6862,-2.6875,-2.69,-2.6908,-2.6918,-2.6919,-2.6939,-2.6959,-2.6934,-2.6937,-2.6918,-2.6939,-2.7001,-2.691,-2.6909,-2.6928,-2.7061,-2.7082,-2.7094,-2.6984,-2.6985,-2.6987,-2.7061,0,-2.695,-2.6991,-2.6967,-2.7013,-2.7029,-2.6991,-2.7012,-2.701,-2.7,-2.7012,-2.7,-2.7015,-2.698,-2.6982,-2.7001,-2.6989,-2.7027,-2.6984,-2.7003,-2.7004,-2.7006,-2.7106,-2.7128,-2.7199,-2.707,-2.7072,-2.7073,0,-2.7042,-2.7047,-2.7094,-2.7083,-2.7089,-2.7109,-2.7114,-2.7126,-2.7123,-2.7114,-2.7117,-2.7093,-2.7117,-2.7078,-2.7111,-2.7081,-2.7088,-2.7083,-2.7085,-2.7087,-2.7043,-2.7111,-2.722,-2.7231,-2.7088,-2.7086,-2.7085,0,-2.7123,-2.7141,-2.7171,-2.7172,-2.716,-2.7175,-2.7171,-2.7165,-2.7171,-2.7176,-2.718,-2.7187,-2.7192,-2.7198,-2.7177,-2.715,-2.7213,-2.7172,-2.7207,-2.7207,-2.7222,-2.7222,-2.7335,-2.7226,-2.7225,-2.7225,-2.7225,0,-2.7209,-2.7239,-2.7207,-2.7226,-2.7259,-2.723,-2.7264,-2.7255,-2.7251,-2.7268,-2.7235,-2.7252,-2.7222,-2.7236,-2.7219,-2.7249,-2.7251,-2.7245,-2.724,-2.7248,-2.7249,-2.7252,-2.7247,-2.7228,-2.7227,-2.7227,-2.7226,0,-2.7304,-2.7284,-2.7314,-2.73,-2.7297,-2.7322,-2.731,-2.7327,-2.7314,-2.7335,-2.7339,-2.7318,-2.7332,-2.7311,-2.7324,-2.7312,-2.7354,-2.7342,-2.7355,-2.7352,-2.7388,-2.7385,-2.7508,-2.7523,-2.7404,-2.7405,-2.7406,0,-2.7361,-2.7383,-2.7371,-2.738,-2.7377,-2.7392,-2.7398,-2.7371,-2.7379,-2.7376,-2.7394,-2.7405,-2.7413,-2.7438,-2.7424,-2.7433,-2.7421,-2.7464,-2.7422,-2.743,-2.7422,-2.7422,-2.7424,-2.7472,-2.7474,-2.7475,-2.7476,0,-2.7464,-2.7452,-2.7462,-2.7468,-2.7476,-2.748,-2.7482,-2.7491,-2.7462,-2.7473,-2.7487,-2.7493,-2.7505,-2.7517,-2.7522,-2.7518,-2.7493,-2.7489,-2.7497,-2.7506,-2.7513,-2.7511,-2.7379,-2.7486,-2.7485,-2.7485,-2.7484,-2.7484,-2.7542,-2.756,-2.7554,-2.7566,-2.7564,-2.7566,-2.7582,-2.757,-2.7581,-2.7588,-2.7572,-2.759,-2.7586,-2.7591,-2.7589,-2.7603,-2.7585,-2.7597,-2.7601,-2.7604,-2.761,-2.7511,-2.7604,-2.7604,-2.7604,-2.7603,-2.7603,0,-2.7643,-2.7638,-2.7649,-2.7652,-2.7661,-2.7635,-2.7636,-2.7645,-2.7662,-2.766,-2.7668,-2.7684,-2.7696,-2.7683,-2.7692,-2.7705,-2.7694,-2.7709,-2.7708,-2.7707,-2.7626,-2.7618,-2.7718,-2.7718,-2.7718,-2.7718,-2.7718,-2.7718,-2.7698,-2.7727,-2.7715,-2.7743,-2.7737,-2.7754,-2.7756,-2.7758,-2.7757,-2.7776,-2.7785,-2.7776,-2.777,-2.7778,-2.7788,-2.7784,-2.7789,-2.7808,-2.78,-2.7724,-2.7713,-2.7702,-2.7695,-2.7809,-2.7809,-2.788,-2.7881,-2.7881]},{"header":{"parameterUnit":"m.s-1","parameterCategory":1,"la1":30.2991,"la2":30.254,"lo1":-89.0895,"lo2":-89.0444,"dy":0.0017,"dx":0.0017,"nx":28,"ny":28,"refTime":"2025-01-19T03:00:00:Z","depth":0,"parameterNumber":3,"parameterNumberName":"V-component_of_WINDS"},"data":[0,0,0,0,0,0,0,0,0,0,0,0,0,0,0,0,0,0,0,0,0,0,0,0,0,0,0,0,0,0,0,0,0,0,0,0,0,0,0,0,0,0,0,0,0,0,0,0,0,0,0,0,0,0,0,0,0,0,-4.8609,-4.8609,0,-4.8645,-4.8646,-4.8646,-4.8604,-4.8603,-4.8601,-4.86,-4.8633,-4.8636,-4.8638,0,0,0,0,0,0,0,0,0,0,0,0,0,-4.8499,-4.8501,-4.8609,-4.8609,-4.861,-4.8645,-4.8646,-4.8646,-4.8604,-4.8602,-4.8601,-4.8599,-4.8633,-4.8635,-4.8638,0,0,0,0,0,0,0,0,0,0,0,0,0,-4.8542,-4.8502,-4.8609,-4.8593,-4.8592,-4.8645,-4.8646,-4.8646,-4.8605,-4.8602,-4.86,-4.8598,-4.8632,-4.8635,-4.8639,-4.8707,0,0,-4.8649,-4.8651,0,0,0,0,0,0,0,0,-4.854,-4.8546,-4.8595,-4.8594,-4.8593,-4.8618,-4.8619,-4.8667,-4.8605,-4.86,-4.8599,-4.8597,-4.863,-4.8633,-4.8645,-4.8709,-4.871,-4.865,-4.8652,-4.8653,-4.8654,0,0,0,0,0,0,0,-4.8537,-4.8544,-4.8623,-4.8596,-4.8595,-4.8583,-4.8587,-4.8628,-4.8627,-4.86,-4.8597,-4.8602,-4.8629,-4.8642,-4.8646,-4.8711,-4.865,-4.8653,-4.8655,-4.8656,-4.8833,-4.8836,0,0,0,0,0,0,-4.8536,-4.8542,-4.8622,-4.8624,-4.856,-4.8587,-4.8591,-4.8612,-4.8627,-4.8627,-4.8604,-4.86,-4.8637,-4.8642,-4.8647,-4.8729,-4.8653,-4.8657,-4.8659,-4.8831,-4.8834,-4.8836,0,0,0,0,0,0,-4.8534,-4.8544,-4.862,-4.8583,-4.8591,-4.8592,-4.8616,-4.8614,-4.8627,-4.863,-4.8629,-4.8618,-4.8635,-4.8642,-4.8693,-4.8729,-4.8658,-4.8661,-4.8827,-4.8831,-4.8835,-4.8893,0,0,0,0,0,0,-4.8531,-4.8543,-4.857,-4.8583,-4.8594,-4.8667,-4.8618,-4.8617,-4.8634,-4.8629,-4.8643,-4.8643,-4.8634,-4.8688,-4.8696,-4.8733,-4.8664,-4.8824,-4.8829,-4.8834,-4.8888,-4.8899,-4.8908,0,0,0,0,0,-4.8527,-4.8584,-4.8572,-4.8582,-4.8628,-4.8669,-4.8675,-4.8665,-4.8637,-4.8664,-4.8665,-4.8642,-4.8724,-4.8693,-4.8703,-4.8741,-4.8822,-4.8828,-4.8833,-4.8884,-4.8897,-4.8907,0,0,0,0,0,0,-4.8574,-4.8586,-4.8572,-4.8635,-4.8652,-4.8662,-4.8696,-4.8679,-4.8703,-4.8697,-4.8682,-4.8685,-4.874,-4.8745,-4.8711,-4.8808,-4.8768,-4.8776,-4.8803,-4.8815,-4.8825,-4.8823,-4.8667,0,0,0,0,0,-4.8592,-4.8626,-4.8634,-4.8689,-4.8698,-4.8696,-4.8713,-4.8704,-4.872,-4.8727,-4.8732,-4.8748,-4.8777,-4.8796,-4.8823,-4.8888,-4.8891,-4.8919,-4.8929,-4.8937,-4.8944,-4.8979,-4.8992,-4.8855,-4.8855,-4.8855,0,0,-4.8628,-4.8639,-4.8661,-4.8698,-4.871,-4.8745,-4.8702,-4.874,-4.8766,-4.8732,-4.8781,-4.8786,-4.8802,-4.8861,-4.8887,-4.8867,-4.8982,-4.8944,-4.8951,-4.8953,-4.8987,-4.9,-4.9011,-4.8859,-4.8859,-4.8858,0,0,-4.8713,-4.8725,-4.8772,-4.8785,-4.8804,-4.8802,-4.8814,-4.8827,-4.883,-4.8879,-4.8855,-4.8884,-4.8934,-4.8947,-4.896,-4.9051,-4.903,-4.906,-4.9111,-4.9145,-4.9156,-4.9166,-4.9198,-4.921,-4.9067,-4.9067,-4.9067,0,-4.8756,-4.8809,-4.8798,-4.8839,-4.8856,-4.8829,-4.8876,-4.8889,-4.8915,-4.8927,-4.8904,-4.8968,-4.8976,-4.9038,-4.906,-4.9072,-4.9084,-4.9058,-4.9156,-4.9165,-4.9174,-4.9205,-4.9217,-4.907,-4.907,-4.907,-4.9069,0,-4.8861,-4.8898,-4.8934,-4.8962,-4.8983,-4.9026,-4.9021,-4.9043,-4.9032,-4.9033,-4.9083,-4.9093,-4.9122,-4.9135,-4.9124,-4.9196,-4.9183,-4.9158,-4.9118,-4.9191,-4.922,-4.9231,-4.9075,-4.9074,-4.9073,-4.9072,0,0,-4.8976,-4.8999,-4.9012,-4.9025,-4.9044,-4.9071,-4.9114,-4.9143,-4.9163,-4.9181,-4.9216,-4.926,-4.9238,-4.9252,-4.9242,-4.9273,-4.9344,-4.9244,-4.9245,-4.9263,-4.9424,-4.9443,-4.9457,-4.9331,-4.9333,-4.9335,-4.9423,0,-4.9062,-4.9137,-4.9129,-4.92,-4.9234,-4.9209,-4.9246,-4.9261,-4.9262,-4.929,-4.9291,-4.9322,-4.929,-4.9299,-4.9328,-4.933,-4.9377,-4.9323,-4.9363,-4.9364,-4.936,-4.9472,-4.9492,-4.9574,-4.9434,-4.9436,-4.9437,0,-4.9172,-4.9197,-4.9273,-4.9287,-4.9301,-4.9335,-4.9361,-4.9389,-4.9405,-4.9404,-4.9421,-4.9406,-4.9447,-4.9406,-4.9462,-4.9426,-4.9442,-4.9445,-4.9448,-4.9452,-4.9406,-4.9479,-4.96,-4.9613,-4.9455,-4.9453,-4.9452,0,-4.925,-4.9302,-4.9354,-4.9365,-4.9383,-4.9407,-4.9416,-4.943,-4.9448,-4.9471,-4.9483,-4.9509,-4.9524,-4.9545,-4.9537,-4.9507,-4.9595,-4.9553,-4.9595,-4.9595,-4.9615,-4.9614,-4.9741,-4.9624,-4.9624,-4.9624,-4.9624,0,-4.9347,-4.9394,-4.9389,-4.9421,-4.9473,-4.9462,-4.9513,-4.9518,-4.9531,-4.9563,-4.9542,-4.9572,-4.9559,-4.9588,-4.9582,-4.963,-4.9637,-4.9636,-4.9634,-4.9639,-4.9639,-4.9649,-4.9643,-4.9627,-4.9626,-4.9626,-4.9625,0,-4.9442,-4.9441,-4.9496,-4.9509,-4.9513,-4.9551,-4.9562,-4.9591,-4.9591,-4.9632,-4.964,-4.964,-4.9673,-4.9667,-4.9703,-4.9699,-4.9759,-4.975,-4.9754,-4.9752,-4.9795,-4.9791,-4.9934,-4.9952,-4.9823,-4.9824,-4.9825,0,-4.9505,-4.9541,-4.9558,-4.9579,-4.959,-4.9623,-4.9642,-4.9632,-4.9653,-4.9675,-4.9702,-4.9733,-4.9758,-4.9811,-4.9813,-4.9841,-4.9832,-4.988,-4.9836,-4.984,-4.9834,-4.9832,-4.9836,-4.9889,-4.989,-4.9892,-4.9893,0,-4.9616,-4.9614,-4.9643,-4.9673,-4.9696,-4.9719,-4.9738,-4.9756,-4.9748,-4.9772,-4.9807,-4.9826,-4.9863,-4.9895,-4.992,-4.9927,-4.9909,-4.9907,-4.9918,-4.9923,-4.9925,-4.9925,-4.9779,-4.9903,-4.9902,-4.9902,-4.9901,-4.9901,-4.9697,-4.9728,-4.9746,-4.9779,-4.9794,-4.9813,-4.9842,-4.9846,-4.9875,-4.9906,-4.9898,-4.9937,-4.9952,-4.9985,-4.9995,-5.0025,-5.0007,-5.0023,-5.0027,-5.0031,-5.0037,-4.992,-5.0029,-5.0029,-5.0028,-5.0028,-5.0028,0,-4.9808,-4.9818,-4.9849,-4.9879,-4.9905,-4.9886,-4.9907,-4.993,-4.9965,-4.9982,-5.0007,-5.0046,-5.0077,-5.0081,-5.011,-5.0133,-5.0125,-5.0141,-5.0139,-5.0141,-5.0051,-5.0039,-5.0147,-5.0147,-5.0147,-5.0147,-5.0147,-5.0147,-4.9869,-4.9921,-4.9921,-4.9979,-4.9988,-5.0028,-5.0042,-5.0059,-5.0072,-5.0118,-5.0144,-5.0147,-5.0159,-5.0188,-5.0215,-5.0215,-5.0227,-5.0246,-5.0243,-5.0159,-5.0147,-5.0136,-5.0125,-5.0249,-5.0249,-5.0331,-5.0332,-5.0332]}]]